Location: Unspecified
(0.0000°N, 0.0000°E)
Time: 17:57:16
(UTC+00:00)

COSMOS 2496 - Pass Details

Date: 17 May 2026
Orbit: 1478 x 1511 km, 82.4° (Epoch: 10 June)

Event Time Altitude Azimuth Distance (km) Brightness Sun altitude
Rises 05:23:51 0° 342° (NNW) 4,582 ? -7.7°
Reaches altitude 10° 05:26:53 10° 335° (NNW) 3,605 ? -7.0°
Maximum altitude 05:34:54 43° 267° (W) 1,969 ? -5.1°
Drops below altitude 10° 05:43:01 10° 198° (SSW) 3,629 ? -3.2°
Sets 05:46:07 0° 191° (S) 4,615 ? -2.4°
